{"data":{"norad_id":69128,"epoch":"2026-09-19T07:57:27.850176Z","epoch_age_seconds":124118,"freshness":"FRESH","line1":"1 69128U 26110E   26262.33157234  .00014882  00000+0  46243-3 0  9996","line2":"2 69128  97.2858  97.3579 0001142  89.1531 270.9843 15.33443063 20032","mean_motion":15.33443063,"eccentricity":0.0001142,"inclination_deg":97.2858,"raan_deg":97.3579,"arg_perigee_deg":89.1531,"mean_anomaly_deg":270.9843,"bstar":0.00046243,"rev_number":2003,"period_min":93.90632327638,"perigee_km":464.76738869933,"apogee_km":466.33048656748,"semimajor_km":6843.6859376334,"source":"CELESTRAK","updated_at":"2026-09-20T09:00:44.084947Z"}}